Location: Gleizolles
(44.4833°N, 6.7667°E)
Time: 22:01:19
(UTC+00:00)

Tiros 1 despin weight - Pass Details

Date: 03 July 2024
Orbit: 576 x 620 km, 48.2° (Epoch: 19 July)

Event Time Altitude Azimuth Distance (km) Brightness Sun altitude
Rises 06:24:46 0° 202° (SSW) 2,831 ? 24.1°
Reaches altitude 10° 06:27:28 10° 186° (S) 1,941 ? 24.6°
Maximum altitude 06:30:48 21° 138° (SE) 1,384 ? 25.1°
Drops below altitude 10° 06:34:10 10° 89° (E) 1,969 ? 25.7°
Sets 06:36:56 0° 74° (ENE) 2,884 ? 26.2°
